Weather History for Tullahoma, TN

Change the Weather History Date:

Monday, May 6, 2013

  Actual Average Record
Temperature  
Mean Temperature 50 °F -  
Max Temperature 57 °F 76 °F 84 °F (2014)
Min Temperature 42 °F 50 °F 42 °F (2013)
Degree Days  
Heating Degree Days 14    
Moisture  
Dew Point 47 °F    
Average Humidity 89    
Maximum Humidity 100    
Minimum Humidity 67    
Precipitation  
Precipitation 0.00 in - - ()
Sea Level Pressure  
Sea Level Pressure 29.84 in    
Wind  
Wind Speed 3 mph (South)    
Max Wind Speed 12 mph    
Max Gust Speed -    
Visibility 8 miles    
Events      
Averages and records for this station are not official NWS values.
T = Trace of Precipitation, MM = Missing Value Source: NWS Daily Summary

Daily Weather History Graph

Daily Weather History Graph

Search for Another Location

Airport:

Trip Planner

Search our weather history database for the weather conditions in past years. The results will help you decide how hot, cold, wet, or windy it might be!

Date:

Astronomy

May. 06, 2013 Rise Set
Actual Time 5:48 AM CDT 7:35 PM CDT
Civil Twilight 5:20 AM CDT 8:03 PM CDT
Nautical Twilight 4:47 AM CDT 8:36 PM CDT
Astronomical Twilight 4:11 AM CDT 9:12 PM CDT
Moon 3:43 AM CDT (5/6) 4:40 PM CDT (5/6)
Length of Visible Light 14h 42m
Length of Day
13h 47m
Waning Crescent, 11% of the Moon is Illuminated
May 6
Waning Crescent
May 9
New
May 17
First Quarter
May 24
Full
May 31
Last Quarter

Hourly Weather History & Observations

Time (CDT) Temp. Windchill Dew Point Humidity Pressure Visibility Wind Dir Wind Speed Gust Speed Precip Events Conditions
12:15 AM 50.0 °F - 48.2 °F 94% 29.82 in 10.0 mi Calm Calm - N/A   Overcast
12:35 AM 50.0 °F - 48.2 °F 94% 29.81 in 6.0 mi NNW 3.5 mph - N/A   Overcast
12:55 AM 50.0 °F - 48.2 °F 94% 29.81 in 8.0 mi Calm Calm - N/A   Overcast
1:35 AM 51.8 °F - 50.0 °F 94% 29.78 in 5.0 mi Calm Calm - N/A   Overcast
1:55 AM 50.0 °F - 50.0 °F 100% 29.78 in 3.0 mi Calm Calm - N/A   Overcast
2:15 AM 50.0 °F - 50.0 °F 100% 29.77 in 5.0 mi WNW 6.9 mph - N/A   Overcast
2:35 AM 50.0 °F - 50.0 °F 100% 29.77 in 10.0 mi NNW 5.8 mph - N/A   Overcast
2:55 AM 50.0 °F - 50.0 °F 100% 29.77 in 10.0 mi NW 3.5 mph - N/A   Overcast
3:15 AM 50.0 °F - 50.0 °F 100% 29.77 in 10.0 mi WNW 4.6 mph - N/A   Overcast
3:35 AM 50.0 °F - 50.0 °F 100% 29.77 in 7.0 mi Calm Calm - N/A   Overcast
3:55 AM 48.2 °F - 48.2 °F 100% 29.77 in 2.5 mi SSE 4.6 mph - N/A   Overcast
4:15 AM 48.2 °F - 46.4 °F 93% 29.77 in 3.0 mi SSE 5.8 mph - N/A   Mostly Cloudy
4:35 AM 48.2 °F - 46.4 °F 93% 29.78 in 4.0 mi SSE 6.9 mph - N/A   Overcast
4:55 AM 46.4 °F 42.4 °F 46.4 °F 100% 29.78 in 5.0 mi SSE 8.1 mph - N/A   Mostly Cloudy
5:15 AM 46.4 °F 42.9 °F 46.4 °F 100% 29.77 in 7.0 mi SSE 6.9 mph - N/A   Overcast
5:35 AM 46.4 °F 45.2 °F 46.4 °F 100% 29.79 in 10.0 mi South 3.5 mph - N/A   Overcast
5:55 AM 46.4 °F - 46.4 °F 100% 29.80 in 4.0 mi Calm Calm - N/A   Overcast
6:15 AM 46.4 °F - 46.4 °F 100% 29.81 in 8.0 mi Calm Calm - N/A   Overcast
6:35 AM 46.4 °F 43.5 °F 46.4 °F 100% 29.81 in 6.0 mi South 5.8 mph - N/A   Mostly Cloudy
6:55 AM 46.4 °F 43.5 °F 46.4 °F 100% 29.82 in 3.0 mi South 5.8 mph - N/A   Overcast
7:15 AM 46.4 °F 44.3 °F 46.4 °F 100% 29.81 in 10.0 mi South 4.6 mph - N/A   Overcast
7:35 AM 48.2 °F - 46.4 °F 93% 29.82 in 10.0 mi South 5.8 mph - N/A   Scattered Clouds
7:55 AM 48.2 °F - 44.6 °F 87% 29.83 in 10.0 mi SSE 4.6 mph - N/A   Partly Cloudy
8:15 AM 51.8 °F - 46.4 °F 82% 29.83 in 10.0 mi SSE 4.6 mph - N/A   Scattered Clouds
8:35 AM 51.8 °F - 46.4 °F 82% 29.83 in 10.0 mi South 4.6 mph - N/A   Scattered Clouds
8:55 AM 51.8 °F - 46.4 °F 82% 29.83 in 10.0 mi South 4.6 mph - N/A   Mostly Cloudy
9:15 AM 51.8 °F - 46.4 °F 82% 29.84 in 10.0 mi Calm Calm - N/A   Scattered Clouds
9:35 AM 53.6 °F - 46.4 °F 77% 29.84 in 10.0 mi SW 4.6 mph - N/A   Mostly Cloudy
9:55 AM 53.6 °F - 46.4 °F 77% 29.84 in 10.0 mi Calm Calm - N/A   Mostly Cloudy
10:15 AM 55.4 °F - 46.4 °F 72% 29.84 in 10.0 mi Calm Calm - N/A   Overcast
10:35 AM 53.6 °F - 46.4 °F 77% 29.84 in 10.0 mi South 5.8 mph - N/A   Overcast
10:55 AM 55.4 °F - 46.4 °F 72% 29.85 in 10.0 mi SSW 3.5 mph - N/A   Overcast
11:15 AM 55.4 °F - 46.4 °F 72% 29.85 in 10.0 mi South 4.6 mph - N/A   Mostly Cloudy
11:35 AM 55.4 °F - 46.4 °F 72% 29.85 in 10.0 mi SW 3.5 mph - N/A   Mostly Cloudy
11:55 AM 53.6 °F - 46.4 °F 77% 29.85 in 10.0 mi SW 3.5 mph - N/A   Overcast
12:15 PM 55.4 °F - 46.4 °F 72% 29.85 in 10.0 mi SW 8.1 mph - N/A   Mostly Cloudy
12:35 PM 57.2 °F - 46.4 °F 67% 29.84 in 10.0 mi South 3.5 mph - N/A   Mostly Cloudy
12:55 PM 55.4 °F - 46.4 °F 72% 29.84 in 10.0 mi SSW 6.9 mph - N/A   Overcast
1:15 PM 57.2 °F - 46.4 °F 67% 29.84 in 10.0 mi SSW 8.1 mph - N/A   Overcast
1:35 PM 57.2 °F - 46.4 °F 67% 29.84 in 10.0 mi Variable 4.6 mph - N/A   Mostly Cloudy
1:55 PM 55.4 °F - 48.2 °F 77% 29.86 in 10.0 mi East 11.5 mph - N/A   Mostly Cloudy
2:15 PM 50.0 °F - 46.4 °F 87% 29.87 in 2.0 mi East 5.8 mph - N/A   Overcast
2:35 PM 48.2 °F - 46.4 °F 93% 29.86 in 2.5 mi East 5.8 mph - N/A   Overcast
2:55 PM 51.8 °F - 48.2 °F 88% 29.86 in 10.0 mi East 4.6 mph - N/A   Overcast
3:15 PM 51.8 °F - 48.2 °F 88% 29.86 in 10.0 mi Calm Calm - N/A   Overcast
3:35 PM 51.8 °F - 48.2 °F 88% 29.85 in 10.0 mi Calm Calm - N/A   Mostly Cloudy
3:55 PM 51.8 °F - 48.2 °F 88% 29.85 in 10.0 mi South 3.5 mph - N/A   Partly Cloudy
4:15 PM 51.8 °F - 48.2 °F 88% 29.85 in 10.0 mi Variable 3.5 mph - N/A   Scattered Clouds
4:35 PM 53.6 °F - 48.2 °F 82% 29.85 in 10.0 mi Calm Calm - N/A   Partly Cloudy
4:55 PM 53.6 °F - 48.2 °F 82% 29.85 in 10.0 mi Calm Calm - N/A   Clear
5:15 PM 53.6 °F - 48.2 °F 82% 29.86 in 10.0 mi Calm Calm - N/A   Clear
5:55 PM 53.6 °F - 48.2 °F 82% 29.86 in 10.0 mi Calm Calm - N/A   Clear
6:15 PM 51.8 °F - 48.2 °F 88% 29.86 in 10.0 mi Calm Calm - N/A   Clear
6:35 PM 51.8 °F - 48.2 °F 88% 29.87 in 10.0 mi Calm Calm - N/A   Clear
6:55 PM 51.8 °F - 50.0 °F 94% 29.88 in 10.0 mi Calm Calm - N/A   Clear
7:15 PM 51.8 °F - 48.2 °F 88% 29.88 in 10.0 mi Calm Calm - N/A   Clear
7:35 PM 51.8 °F - 48.2 °F 88% 29.88 in 10.0 mi Calm Calm - N/A   Partly Cloudy
7:55 PM 50.0 °F - 48.2 °F 94% 29.88 in 10.0 mi Calm Calm - N/A   Clear
8:15 PM 50.0 °F - 48.2 °F 94% 29.88 in 10.0 mi Calm Calm - N/A   Clear
8:35 PM 48.2 °F - 46.4 °F 93% 29.89 in 1.8 mi Calm Calm - N/A   Clear
8:55 PM 46.4 °F - 46.4 °F 100% 29.90 in 5.0 mi Calm Calm - N/A   Clear
9:15 PM 46.4 °F - 46.4 °F 100% 29.91 in 1.2 mi Calm Calm - N/A   Clear
9:35 PM 44.6 °F - 44.6 °F 100% 29.92 in 6.0 mi Calm Calm - N/A   Scattered Clouds
9:55 PM 44.6 °F - 44.6 °F 100% 29.93 in 1.8 mi Calm Calm - N/A   Mostly Cloudy
10:15 PM 44.6 °F - 44.6 °F 100% 29.92 in 2.0 mi Calm Calm - N/A   Clear
10:35 PM 44.6 °F - 42.8 °F 93% 29.92 in 10.0 mi Calm Calm - N/A   Clear
10:55 PM 44.6 °F - 42.8 °F 93% 29.92 in 10.0 mi Calm Calm - N/A   Clear
11:15 PM 44.6 °F - 44.6 °F 100% 29.92 in 10.0 mi Calm Calm - N/A   Scattered Clouds
11:35 PM 44.6 °F - 44.6 °F 100% 29.92 in 10.0 mi Calm Calm - N/A   Partly Cloudy
11:55 PM 42.8 °F - 42.8 °F 100% 29.92 in 10.0 mi Calm Calm - N/A   Clear